Weather History for GMMZ - March, 2014

Change the Weather History Date:

Wednesday, March 26, 2014

  Actual Average Record
Temperature  
Mean Temperature 61 °F -  
Max Temperature 78 °F 76 °F - ()
Min Temperature 44 °F 49 °F - ()
Degree Days  
Heating Degree Days 4    
Growing Degree Days 11 (Base 50)    
Moisture  
Dew Point 5 °F    
Average Humidity 9    
Maximum Humidity 20    
Minimum Humidity 4    
Precipitation  
Precipitation 0.00 in 0.01 in - ()
Sea Level Pressure  
Sea Level Pressure 30.07 in    
Wind  
Wind Speed 10 mph ()    
Max Wind Speed 29 mph    
Max Gust Speed 39 mph    
Visibility 12.0 miles    
Events      
T = Trace of Precipitation, MM = Missing Value Source: Averaged Metar Reports

Daily Weather History Graph

Daily Weather History Graph

Search for Another Location

Airport or City:

Trip Planner

Search our weather history database for the weather conditions in past years. The results will help you decide how hot, cold, wet, or windy it might be!

Date:

Astronomy

Mar. 26, 2014 Rise Set
Actual Time 6:24 AM WET 6:42 PM WET
Civil Twilight 6:00 AM WET 7:07 PM WET
Nautical Twilight 5:31 AM WET 7:35 PM WET
Astronomical Twilight 5:03 AM WET 8:04 PM WET
Moon 3:04 AM WET (3/26) 2:21 PM WET (3/26)
Length of Visible Light 13h 06m
Length of Day
12h 18m
Waning Crescent, 23% of the Moon is Illuminated
Mar 26
Waning Crescent
Mar 30
New
Apr 7
First Quarter
Apr 15
Full
Apr 22
Last Quarter

Hourly Weather History & Observations

Time (WET) Temp. Dew Point Humidity Pressure Visibility Wind Dir Wind Speed Gust Speed Precip Events Conditions
12:00 AM 62 °F 7 °F 4%  in 12 mi West 8.1 mph - -  
12:00 AM 62.6 °F 6.8 °F 11% 30.21 in - West 8.1 mph - N/A   Clear
1:00 AM 62.6 °F 5.0 °F 10% 30.18 in - SW 6.9 mph - N/A   Clear
2:00 AM 59.0 °F 3.2 °F 11% 30.15 in - West 5.8 mph - N/A   Clear
3:00 AM 53 °F 2 °F 5%  in - West 2.3 mph - -  
3:00 AM 53.6 °F 1.4 °F 12% 30.12 in - Variable 3.5 mph - N/A   Clear
4:00 AM 57.2 °F 1.4 °F 10% 30.12 in - Variable 3.5 mph - N/A   Clear
5:00 AM 48.2 °F 1.4 °F 15% 30.09 in - Variable 2.3 mph - N/A   Clear
6:00 AM 48 °F 1 °F 6%  in - WNW 6.9 mph - -  
6:00 AM 50.0 °F 1.4 °F 14% 30.12 in - WNW 8.1 mph - N/A   Clear
7:00 AM 59.0 °F 3.2 °F 11% 30.12 in - West 5.8 mph - N/A   Clear
8:00 AM 60.8 °F 3.2 °F 10% 30.12 in - WNW 6.9 mph - N/A   Clear
9:00 AM 66 °F 3 °F 4%  in 12 mi WSW 6.9 mph - -  
9:00 AM 68.0 °F 1.4 °F 7% 30.12 in - West 13.8 mph - N/A   Clear
10:00 AM 69.8 °F 3.2 °F 7% 30.12 in - West 19.6 mph - N/A   Clear
11:00 AM 73.4 °F 3.2 °F 6% 30.09 in - WNW 15.0 mph 27.6 mph N/A   Clear
12:00 PM 76 °F -5 °F 4%  in 12 mi West 19.6 mph - -   Clear
12:00 PM 75.2 °F -0.4 °F 5% 30.06 in - WNW 18.4 mph 32.2 mph N/A   Clear
1:00 PM 77.0 °F -9.4 °F 4% 30.04 in - West 24.2 mph - N/A   Clear
2:00 PM 77.0 °F 1.4 °F 5% 30.01 in - West 17.3 mph 29.9 mph N/A   Clear
3:00 PM 77 °F 1 °F 4%  in 12 mi West 25.3 mph - -   Clear
3:00 PM 77.0 °F 1.4 °F 5% 29.98 in - West 27.6 mph 39.1 mph N/A   Clear
4:00 PM 75.2 °F -0.4 °F 5% 29.98 in - West 26.5 mph - N/A   Clear
5:00 PM 73.4 °F 5.0 °F 7% 29.98 in - WNW 27.6 mph - N/A   Clear
6:00 PM 69 °F 8 °F 4%  in 12 mi WNW 26.5 mph - -   Clear
6:00 PM 69.8 °F 8.6 °F 9% 29.98 in - WNW 28.8 mph - N/A   Clear
7:00 PM 64.4 °F 15.8 °F 15% 30.01 in - WNW 18.4 mph - N/A   Clear
8:00 PM 62.6 °F 15.8 °F 16% 30.01 in - WNW 17.3 mph - N/A   Clear
9:00 PM 61 °F 19 °F 10%  in 12 mi WNW 16.1 mph - -   Clear
9:00 PM 60.8 °F 19.4 °F 20% 30.01 in - WNW 17.3 mph - N/A   Clear
10:00 PM 60.8 °F 14.0 °F 16% 30.04 in - NNW 6.9 mph - N/A   Clear
11:00 PM 59.0 °F 8.6 °F 14% 30.04 in - West 10.4 mph - N/A   Clear